Location: 22
(39.7117°N, 89.5929°W)
Time: 19:20:55
(UTC-05:00)

Vanguard 3 - Pass Details

Date: 07 February 2023
Orbit: 508 x 3249 km, 33.4° (Epoch: 30 March)

Event Time Altitude Azimuth Distance (km) Brightness Sun altitude
Rises 20:59:14 0° 271° (W) 4,547 11.8 -41.3°
Reaches altitude 10° 21:01:48 10° 267° (W) 3,862 11.2 -41.8°
Enters shadow 21:11:53 59° 201° (SSW) 2,581 9.4 -43.6°
Maximum altitude 21:12:28 59° 192° (SSW) 2,614 - -43.7°
Drops below altitude 10° 21:29:54 10° 119° (ESE) 6,022 - -46.9°
Sets 21:35:04 0° 116° (ESE) 7,175 - -47.8°
